Weather History for Crestview, FL

Change the Weather History Date:

Saturday, November 19, 2011

  Actual Average Record
Temperature  
Mean Temperature 61 °F -  
Max Temperature 70 °F - - ()
Min Temperature 52 °F - - ()
Degree Days  
Heating Degree Days 4    
Growing Degree Days 11 (Base 50)    
Moisture  
Dew Point 57 °F    
Average Humidity 80    
Maximum Humidity 91    
Minimum Humidity 64    
Precipitation  
Precipitation 0.00 in - - ()
Sea Level Pressure  
Sea Level Pressure 30.21 in    
Wind  
Wind Speed 6 mph (East)    
Max Wind Speed 12 mph    
Max Gust Speed 18 mph    
Visibility 10 miles    
Events      
T = Trace of Precipitation, MM = Missing Value Source: NWS Daily Summary

Daily Weather History Graph

Daily Weather History Graph

Search for Another Location

Airport:

Trip Planner

Search our weather history database for the weather conditions in past years. The results will help you decide how hot, cold, wet, or windy it might be!

Date:

Astronomy

Nov. 19, 2011 Rise Set
Actual Time 6:15 AM CST 4:47 PM CST
Civil Twilight 5:49 AM CST 5:12 PM CST
Nautical Twilight 5:20 AM CST 5:42 PM CST
Astronomical Twilight 4:51 AM CST 6:10 PM CST
Moon 12:00 AM CST (11/19) 12:42 PM CST (11/19)
Length of Visible Light 11h 23m
Length of Day
10h 31m
Last Quarter, 38% of the Moon is Illuminated
Nov 19
Last Quarter
Nov 25
New
Dec 2
First Quarter
Dec 10
Full
Dec 17
Last Quarter

Hourly Weather History & Observations

Time (CST) Temp. Dew Point Humidity Pressure Visibility Wind Dir Wind Speed Gust Speed Precip Events Conditions
12:55 AM 54.3 °F 46.0 °F 74% 30.22 in 10.0 mi Variable 4.6 mph - N/A   Overcast
1:55 AM 53.6 °F 46.4 °F 77% 30.22 in 10.0 mi East 5.8 mph - N/A   Overcast
2:55 AM 52.7 °F 46.4 °F 79% 30.22 in 10.0 mi East 3.5 mph - N/A   Partly Cloudy
3:55 AM 52.0 °F 46.8 °F 82% 30.22 in 10.0 mi East 4.6 mph - N/A   Clear
4:55 AM 52.7 °F 47.1 °F 81% 30.22 in 10.0 mi ENE 5.8 mph - N/A   Overcast
5:55 AM 52.5 °F 47.5 °F 83% 30.23 in 10.0 mi ENE 5.8 mph - N/A   Clear
6:55 AM 52.5 °F 47.8 °F 84% 30.24 in 10.0 mi ENE 6.9 mph - N/A   Partly Cloudy
7:55 AM 55.6 °F 48.6 °F 77% 30.25 in 10.0 mi NE 5.8 mph - N/A   Scattered Clouds
8:55 AM 59.2 °F 50.5 °F 73% 30.25 in 10.0 mi East 8.1 mph - N/A   Mostly Cloudy
9:43 AM 60.8 °F 51.8 °F 72% 30.25 in 10.0 mi East 9.2 mph - N/A   Light Drizzle
9:55 AM 61.3 °F 52.3 °F 72% 30.25 in 10.0 mi East 8.1 mph - 0.00 in   Mostly Cloudy
10:10 AM 60.8 °F 53.6 °F 77% 30.25 in 10.0 mi East 5.8 mph - N/A   Scattered Clouds
10:20 AM 60.8 °F 53.6 °F 77% 30.25 in 10.0 mi East 6.9 mph - N/A   Light Drizzle
10:31 AM 60.8 °F 53.6 °F 77% 30.25 in 10.0 mi Variable 5.8 mph - N/A   Mostly Cloudy
10:55 AM 62.1 °F 53.8 °F 74% 30.24 in 10.0 mi East 4.6 mph - 0.00 in   Mostly Cloudy
10:58 AM 62.6 °F 53.6 °F 72% 30.24 in 10.0 mi East 6.9 mph - N/A   Mostly Cloudy
11:41 AM 66.2 °F 55.4 °F 68% 30.22 in 10.0 mi East 8.1 mph - N/A   Mostly Cloudy
11:55 AM 66.4 °F 54.9 °F 66% 30.21 in 10.0 mi ENE 8.1 mph - N/A   Scattered Clouds
12:55 PM 69.4 °F 56.8 °F 64% 30.18 in 10.0 mi East 8.1 mph - N/A   Scattered Clouds
1:19 PM 69.8 °F 59.0 °F 68% 30.18 in 10.0 mi ESE 10.4 mph - N/A   Mostly Cloudy
1:34 PM 69.8 °F 59.0 °F 68% 30.17 in 10.0 mi SE 9.2 mph - N/A   Light Drizzle
1:43 PM 69.8 °F 59.0 °F 68% 30.17 in 10.0 mi SE 9.2 mph - N/A   Mostly Cloudy
1:55 PM 70.7 °F 59.7 °F 68% 30.17 in 10.0 mi SE 10.4 mph - 0.00 in   Mostly Cloudy
2:55 PM 70.0 °F 61.2 °F 73% 30.17 in 10.0 mi East 9.2 mph 18.4 mph N/A   Overcast
3:55 PM 69.4 °F 61.9 °F 77% 30.17 in 10.0 mi East 9.2 mph - N/A   Mostly Cloudy
4:45 PM 68.0 °F 60.8 °F 78% 30.18 in 10.0 mi East 11.5 mph - N/A   Mostly Cloudy
4:55 PM 67.6 °F 61.7 °F 81% 30.18 in 10.0 mi ESE 8.1 mph - N/A   Mostly Cloudy
5:55 PM 66.6 °F 60.4 °F 81% 30.20 in 10.0 mi SE 5.8 mph - N/A   Overcast
6:55 PM 66.4 °F 62.4 °F 87% 30.21 in 10.0 mi East 5.8 mph - N/A   Scattered Clouds
7:41 PM 66.2 °F 62.6 °F 88% 30.21 in 10.0 mi East 6.9 mph - N/A   Overcast
7:43 PM 66.2 °F 62.6 °F 88% 30.21 in 10.0 mi East 8.1 mph - N/A   Mostly Cloudy
7:55 PM 65.7 °F 62.4 °F 89% 30.21 in 10.0 mi East 5.8 mph - N/A   Overcast
8:52 PM 66.2 °F 62.6 °F 88% 30.21 in 10.0 mi ESE 5.8 mph - N/A   Overcast
8:55 PM 65.8 °F 62.6 °F 89% 30.21 in 10.0 mi ESE 5.8 mph - N/A   Overcast
9:55 PM 65.5 °F 62.4 °F 90% 30.22 in 10.0 mi ESE 3.5 mph - N/A   Mostly Cloudy
10:02 PM 66.2 °F 62.6 °F 88% 30.22 in 10.0 mi ESE 3.5 mph - N/A   Mostly Cloudy
10:31 PM 66.2 °F 62.6 °F 88% 30.22 in 10.0 mi Calm Calm - N/A   Mostly Cloudy
10:35 PM 66.2 °F 62.6 °F 88% 30.22 in 10.0 mi Calm Calm - N/A   Mostly Cloudy
10:42 PM 66.2 °F 62.6 °F 88% 30.22 in 10.0 mi East 4.6 mph - N/A   Mostly Cloudy
10:55 PM 65.5 °F 62.8 °F 91% 30.22 in 10.0 mi East 4.6 mph - N/A   Overcast
10:56 PM 66.2 °F 62.6 °F 88% 30.22 in 10.0 mi East 4.6 mph - N/A   Light Drizzle
11:11 PM 66.2 °F 62.6 °F 88% 30.22 in 10.0 mi ESE 4.6 mph - N/A   Overcast
11:28 PM 66.2 °F 62.6 °F 88% 30.22 in 10.0 mi ESE 5.8 mph - N/A   Mostly Cloudy
11:35 PM 66.2 °F 62.6 °F 88% 30.22 in 10.0 mi East 4.6 mph - N/A   Mostly Cloudy
11:55 PM 65.5 °F 62.8 °F 91% 30.21 in 10.0 mi East 3.5 mph - 0.00 in   Mostly Cloudy